This is the latest recevied weather packets stored in our database for station/object SV8FES. If no packets are shown the sender has not sent any weather packets the latest 10 day(s).
| Time | Temp. | Humidity | Pressure | Rain* | Wind** | Luminosity | Snow |
|---|---|---|---|---|---|---|---|
| 1787822370 | 29.44° C | 61% | 1014.4 hPa | 0 mm | - | 729 W/m² | - |
| 1787822311 | 29.44° C | 61% | 1014.4 hPa | 0 mm | - | 719 W/m² | - |
| 1787822251 | 29.44° C | 60% | 1014.4 hPa | 0 mm | - | 708 W/m² | - |
| 1787822191 | 29.44° C | 60% | 1014.4 hPa | 0 mm | - | 703 W/m² | - |
| 1787822132 | 29.44° C | 60% | 1014.4 hPa | 0 mm | - | 696 W/m² | - |
| 1787822070 | 29.44° C | 60% | 1014.3 hPa | 0 mm | - | 684 W/m² | - |
| 1787822010 | 29.44° C | 60% | 1014.3 hPa | 0 mm | - | 675 W/m² | - |
| 1787821954 | 30° C | 60% | 1014.3 hPa | 0 mm | - | 668 W/m² | - |
| 1787821891 | 29.44° C | 60% | 1014.3 hPa | 0 mm | - | 666 W/m² | - |
| 1787821831 | 29.44° C | 60% | 1014.3 hPa | 0 mm | - | 666 W/m² | - |
| 1787821772 | 29.44° C | 60% | 1014.3 hPa | 0 mm | - | 663 W/m² | - |
| 1787821712 | 29.44° C | 60% | 1014.3 hPa | 0 mm | - | 666 W/m² | - |
| 1787821656 | 29.44° C | 60% | 1014.2 hPa | 0 mm | - | 666 W/m² | - |
| 1787821590 | 29.44° C | 60% | 1014.2 hPa | 0 mm | - | 675 W/m² | - |
| 1787821532 | 29.44° C | 60% | 1014.1 hPa | 0 mm | - | 680 W/m² | - |
| 1787821471 | 29.44° C | 60% | 1014.2 hPa | 0 mm | - | 687 W/m² | - |
| 1787821410 | 29.44° C | 59% | 1014.2 hPa | 0 mm | - | 691 W/m² | - |
| 1787821363 | 30° C | 59% | 1014.1 hPa | 0 mm | - | 701 W/m² | - |
| 1787821291 | 30° C | 60% | 1014 hPa | 0 mm | - | 715 W/m² | - |
| 1787821233 | 30° C | 59% | 1014 hPa | 0 mm | - | 717 W/m² | - |
| 1787821170 | 30° C | 59% | 1014 hPa | 0 mm | - | 722 W/m² | - |
| 1787821110 | 30° C | 59% | 1014 hPa | 0 mm | - | 731 W/m² | - |
| 1787821052 | 30° C | 59% | 1013.9 hPa | 0 mm | - | 738 W/m² | - |
| 1787820990 | 30° C | 60% | 1014.1 hPa | 0 mm | - | 740 W/m² | - |
| 1787820930 | 30° C | 59% | 1013.9 hPa | 0 mm | - | 519 W/m² | - |
* Rain latest hour (hover to see other rain measurements)
** Current wind speed in m/s (hover to see current wind gust speed)